Location: Barruelo
(41.2448°N, 3.8231°W)
Time: 05:15:21
(UTC+00:00)

Cosmos 1825 Rocket - Pass Details

Date: 11 December 2025
Orbit: 596 x 624 km, 82.5° (Epoch: 13 January)

Event Time Altitude Azimuth Distance (km) Brightness Sun altitude
Rises 17:21:54 0° 1° (N) 2,876 6.7 -6.8°
Reaches altitude 10° 17:24:19 10° 12° (NNE) 1,963 5.8 -7.2°
Maximum altitude 17:28:14 32° 76° (ENE) 1,043 4.2 -7.8°
Drops below altitude 10° 17:32:04 10° 140° (SE) 1,936 5.9 -8.5°
Sets 17:34:27 0° 150° (SSE) 2,830 6.9 -8.9°
